Weather in Romantsevo

Russia / Moscow Oblast     55°18′58″N   37°35′01″E
temp.,
°C
wind,
m/s
gust,
m/s
humid.,
%
clouds,
%
prec.,
mm/h
press.,
hPa
HPBL,
m
19 september, sun
sun1900:00+5e51370100 0.0 1023545
03:00+5e51370100 0.0 1022566
06:00+4e51375100 0.0 1022541
09:00+5e61474100 0.3 1021748
12:00+6e61374100 0.6 1021913
15:00+6e61478100 1.4 1020873
18:00+6e71583100 1.9 1019925
21:00+6e71590100 5.1 1018990
20 september, mon
mon2000:00+5ene81794100 5.4 1017839
03:00+5ene81795100 12.6 1015840
06:00+5e81695100 2.0 1014993
09:00+5e71595100 5.2 10151017
12:00+5e71495100 3.2 1015951
15:00+5e71495100 6.7 1015913
18:00+5e71396100 2.5 1015983
21:00+5e71495100 2.8 1015930
21 september, tue
tue2100:00+6e71495100 3.1 1014871
03:00+6e61396100 6.9 1013775
06:00+6ese51198100 0.1 1013644
09:00+6e51098100 1.0 1012593
12:00+7e51096100 0.2 1012573
15:00+9e61193100 0.5 1011784
18:00+8ese51097100 2.7 1011749
21:00+8ese4898100 3.9 1012530
22 september, wed
wed2200:00+8se2597100 0.6 1013332
03:00+7ese1195100 0.9 101350
06:00+7ese129799 0.2 101374
09:00+9se248622 0.3 1014501
12:00+10sse3574100 0.2 10151086
15:00+10sse3672100 0.3 10151061
18:00+9sse1179100 0.1 101712
21:00+8ese2491100 0.3 1018144
23 september, thu
thu2300:00+8e2496100 0.3 1018168
03:00+7ene2496100 0.3 1017159
06:00+7ne2697100 0.0 1016213
09:00+8e3895100 0.1 1016370
12:00+9ese369399 0.3 1015570
15:00+11sse2478100 0.6 1014731
18:00+9sw1189100 0.1 101411
21:00+6sw11945 0.1 101412